User: anonymous   Login
Location: Unspecified
(0.0000°N, 0.0000°E)
Time: 06:18:09
(UTC+00:00)
Language:

Vanguard 1 Rocket - Orbit

View from above orbital plane
View from above orbital plane
View from above satellite
View from above satellite

Ground track
Ground track

The orbit data is extracted from the following two-line orbital elements,

1 00016U 58002A   21335.28585194  .00000156  00000-0  20525-3 0  9997
2 00016  34.2750  59.0596 2028112 320.1157  26.6402 10.48786224514674
Epoch (UTC): 01 December 2021 06:51:37
Eccentricity: 0.2028112
inclination: 34.2750°
perigee height: 650 km
apogee height: 4226 km
right ascension of ascending node: 59.0596°
argument of perigee: 320.1157°
revolutions per day: 10.48786224
mean anomaly at epoch: 26.6402°
orbit number at epoch: 51467

The dashed part of the orbit path shows where the satellite is in the earth's shadow,  

DLR